Погода в Катеринополе

Украина / Черкасская область     48°56′05″N   30°58′51″E
темп.,
°C
ветер,
м/с
пор.,
м/с
влажн.,
%
обл.,
%
осадки,
мм/ч
давл.,
гПа
погр.,
м
17 июня, чт
чт1700:00+16ссв3895100 1.9 1015189
03:00+15ссв489620 1.9 1015172
06:00+15ссв3896100 0.0 1015203
09:00+19ссв6987100 0.0 1016457
12:00+23св71076100 1.1 10161254
15:00+23св81180100 1.8 10161175
18:00+23св71184100 0.9 1016981
21:00+20св613909 1.4 1017513
18 июня, пт
пт1800:00+18св7149644 1.0 1018500
03:00+17ссв7149633 1.1 1017491
06:00+17св71396100 0.0 1017697
09:00+18св71294100 0.1 1018716
12:00+20всв7118662 0.9 1018971
15:00+22в797440 1.4 10181220
18:00+22всв6981100 0.1 1018910
21:00+19всв6139145 0.3 1019608
19 июня, сб
сб1900:00+17всв51193100 0.3 1020422
03:00+16всв51194100 0.3 1019339
06:00+16всв5119495 0.0 1019361
09:00+20всв6882100 0.0 1019725
12:00+22всв7870100 0.1 10181269
15:00+22всв5777100 0.1 10181003
18:00+22в578072 0.1 1017794
21:00+19св36905 0.2 101790
20 июня, вс
вс2000:00+18всв399714 1.8 1017202
03:00+18всв41097100 2.4 1017266
06:00+18св4998100 1.6 1017291
09:00+19св51091100 1.7 1016383
12:00+23всв796786 0.0 1015899
15:00+22всв6976100 0.2 10151067
18:00+23в697391 0.4 10141052
21:00+19всв48885 0.4 1014175
21 июня, пн
пн2100:00+18всв4109539 0.0 1014225
03:00+17всв47975 0.0 1014148
06:00+17всв37965 0.0 1013190
09:00+21всв44815 0.0 1013468
12:00+25всв347139 0.0 1012992
15:00+27вюв346596 0.0 10121478
18:00+24всв478177 0.1 1012229
21:00+21всв48895 0.3 1012131